GW0020 Weather Reports


Display with metric or nautical units.
time (UTC)temp
F
wind
direction
speed
MPH
gust
MPH
rain 1hr
in
rain 24hr
in
rain mn
in
humidity
%
barometer
mb
20260506221605 60 311 2.0 11.0 0.00 0.00 0.00 81 1013.5
20260506220047 60 354 2.0 8.0 0.00 0.00 0.00 82 1013.5
20260506214555 59 321 3.0 10.0 0.00 0.00 0.00 81 1013.3
20260506213102 59 16 4.0 10.0 0.00 0.00 0.00 81 1013.3
20260506211551 59 330 3.0 8.0 0.00 0.00 0.00 81 1013.8
20260506210057 60 9 3.0 9.0 0.00 0.00 0.00 81 1013.8
20260506204553 59 26 4.0 10.0 0.00 0.00 0.00 80 1013.8
20260506203058 60 340 4.0 10.0 0.00 0.00 0.00 80 1014.0
20260506201556 60 346 3.0 11.0 0.00 0.00 0.00 80 1013.5
20260506200125 61 57 2.0 10.0 0.00 0.00 0.00 79 1013.6
20260506194554 62 308 3.0 8.0 0.00 0.00 0.00 79 1013.7
20260506193051 63 311 4.0 11.0 0.00 0.00 0.00 79 1013.7
20260506191549 63 49 4.0 10.0 0.00 0.00 0.00 78 1013.7
20260506190053 64 347 2.0 6.0 0.00 0.00 0.00 78 1013.8
20260506184550 65 19 5.0 12.0 0.00 0.00 0.00 79 1013.3
20260506183053 69 11 5.0 14.0 0.00 0.00 0.00 75 1013.4
20260506181554 71 339 2.0 8.0 0.00 0.00 0.00 75 1013.2
20260506180053 70 51 3.0 8.0 0.00 0.00 0.00 76 1013.1
20260506174555 70 13 1.0 6.0 0.00 0.00 0.00 75 1012.9
20260506173058 68 34 1.0 7.0 0.00 0.00 0.00 76 1012.6
20260506171557 68 0 0.0 5.0 0.00 0.00 0.00 77 1012.6
20260506170057 66 40 0.0 5.0 0.00 0.00 0.00 79 1012.5
20260506164605 65 353 0.0 6.0 0.00 0.00 0.00 80 1012.9
20260506163101 63 27 1.0 7.0 0.00 0.00 0.00 85 1013.2
20260506161554 60 328 0.0 7.0 0.00 0.00 0.00 88 1013.5
20260506160057 60 49 1.0 15.0 0.00 0.00 0.00 88 1014.4
20260506154555 60 14 4.0 13.0 0.00 0.00 0.00 88 1014.2
20260506153043 61 313 5.0 14.0 0.00 0.00 0.00 87 1014.3
20260506151554 63 330 4.0 10.0 0.00 0.00 0.00 88 1014.1
20260506144548 64 52 4.0 9.0 0.00 0.00 0.00 87 1012.5
20260506143050 65 41 6.0 11.0 0.00 0.00 0.00 86 1012.2
20260506141550 68 359 4.0 8.0 0.00 0.00 0.00 86 1011.6
20260506140048 71 24 4.0 10.0 0.00 0.00 0.00 83 1011.3
20260506134551 74 0 0.0 1.0 0.00 0.00 0.00 90 1011.2
20260506133101 73 0 0.0 1.0 0.00 0.00 0.00 91 1010.9
20260506131616 73 15 0.0 2.0 0.00 0.00 0.00 91 1011.0
20260506130049 73 0 0.0 1.0 0.00 0.00 0.00 92 1010.4
20260506124552 72 0 0.0 1.0 0.00 0.00 0.00 92 1010.4
20260506123051 72 0 0.0 1.0 0.00 0.00 0.00 92 1010.3
20260506121602 72 0 0.0 0.0 0.00 0.00 0.00 91 1010.0
20260506114547 72 0 0.0 0.0 0.00 0.00 0.00 90 1009.8
20260506113048 72 0 0.0 0.0 0.00 0.00 0.00 89 1009.9
20260506111549 73 0 0.0 0.0 0.00 0.00 0.00 89 1010.1
20260506110058 73 0 0.0 1.0 0.00 0.00 0.00 89 1010.2
20260506104558 73 0 0.0 1.0 0.00 0.00 0.00 89 1010.2
20260506103049 73 0 0.0 1.0 0.00 0.00 0.00 89 1009.9
20260506101553 74 136 0.0 1.0 0.00 0.00 0.00 88 1009.6
20260506100058 74 142 0.0 3.0 0.00 0.00 0.00 87 1009.5
20260506094556 74 0 0.0 1.0 0.00 0.00 0.00 87 1009.4
20260506093051 74 0 0.0 1.0 0.00 0.00 0.00 86 1009.3
20260506091548 74 0 0.0 1.0 0.00 0.00 0.00 86 1009.1
20260506090044 74 143 0.0 2.0 0.00 0.00 0.00 86 1009.0
20260506084616 74 155 0.0 3.0 0.00 0.00 0.00 86 1008.7
20260506083052 74 133 1.0 5.0 0.00 0.00 0.00 86 1008.9
20260506081556 74 169 0.0 3.0 0.00 0.00 0.00 85 1008.8
20260506073046 74 232 2.0 8.0 0.00 0.00 0.00 86 1009.0
20260506071544 74 198 1.0 5.0 0.00 0.00 0.00 86 1009.2
20260506061548 75 158 2.0 6.0 0.00 0.00 0.00 85 1009.0
20260506044547 75 131 1.0 3.0 0.00 0.00 0.00 86 1009.1
20260506043053 75 151 1.0 4.0 0.00 0.00 0.00 86 1009.0
20260506041602 75 0 0.0 3.0 0.00 0.00 0.00 85 1008.9
20260506040050 75 0 0.0 3.0 0.00 0.00 0.00 85 1008.9
20260506034544 76 141 1.0 3.0 0.00 0.00 0.00 84 1008.6
20260506033048 76 143 1.0 3.0 0.00 0.00 0.00 83 1008.4
20260506031551 76 131 0.0 3.0 0.00 0.00 0.00 82 1008.3
20260506030053 76 162 1.0 3.0 0.00 0.00 0.00 81 1008.0
20260506024552 76 0 0.0 0.0 0.00 0.00 0.00 81 1008.0
20260506023106 77 0 0.0 2.0 0.00 0.00 0.00 80 1007.7
20260506021609 77 134 0.0 2.0 0.00 0.00 0.00 80 1007.4
20260506020054 77 0 0.0 1.0 0.00 0.00 0.00 79 1007.3
20260506014551 78 172 0.0 2.0 0.00 0.00 0.00 77 1006.9
20260506013100 78 133 0.0 2.0 0.00 0.00 0.00 76 1006.9
20260506011615 79 135 0.0 2.0 0.00 0.00 0.00 74 1006.8
20260506010057 80 0 0.0 4.0 0.00 0.00 0.00 74 1006.8
20260506004553 81 156 0.0 3.0 0.00 0.00 0.00 73 1006.8
20260506003056 81 0 0.0 2.0 0.00 0.00 0.00 72 1006.8
20260506001556 82 0 0.0 3.0 0.00 0.00 0.00 71 1007.0
20260506000054 82 197 1.0 4.0 0.00 0.00 0.00 70 1006.8
20260505234553 82 0 0.0 3.0 0.00 0.00 0.00 69 1006.9
20260505233050 82 219 1.0 5.0 0.00 0.00 0.00 69 1006.6
20260505231604 83 162 2.0 6.0 0.00 0.00 0.00 68 1006.5
20260505230051 83 156 1.0 6.0 0.00 0.00 0.00 68 1006.5
20260505224555 84 194 1.0 4.0 0.00 0.00 0.00 68 1006.2
20260505223048 84 160 1.0 4.0 0.00 0.00 0.00 68 1006.3